Time,TemperatureF,DewpointF,PressureIn,WindDirection,WindDirectionDegrees,WindSpeedMPH,WindSpeedGustMPH,Humidity,HourlyPrecipIn,Conditions,Clouds,dailyrainin,SolarRadiationWatts/m^2,SoftwareType,DateUTC
2013-02-09 00:01:00,30.0,18.0,-100.00,NNW,331,10.0,19.0,61,0.00,,,0.00,0.000000,,2013-02-09 07:01:00,
2013-02-09 00:11:00,30.0,18.0,-100.00,NNW,331,10.0,19.0,61,0.00,,,0.00,0.000000,,2013-02-09 07:11:00,
2013-02-09 00:21:00,30.0,18.0,-100.00,NNW,331,10.0,19.0,61,0.00,,,0.00,0.000000,,2013-02-09 07:21:00,
2013-02-09 00:31:00,30.0,18.0,-100.00,NNW,331,10.0,19.0,61,0.00,,,0.00,0.000000,,2013-02-09 07:31:00,
2013-02-09 01:01:00,30.0,18.0,-100.00,NNW,327,9.0,17.0,61,0.00,,,0.00,0.000000,,2013-02-09 08:01:00,
2013-02-09 01:11:00,30.0,18.0,-100.00,NNW,327,9.0,17.0,61,0.00,,,0.00,0.000000,,2013-02-09 08:11:00,
2013-02-09 01:21:00,30.0,18.0,-100.00,NNW,327,9.0,17.0,61,0.00,,,0.00,0.000000,,2013-02-09 08:21:00,
2013-02-09 01:31:00,30.0,18.0,-100.00,NNW,327,9.0,17.0,61,0.00,,,0.00,0.000000,,2013-02-09 08:31:00,
2013-02-09 01:41:00,30.0,18.0,-100.00,NNW,327,9.0,17.0,61,0.00,,,0.00,0.000000,,2013-02-09 08:41:00,
2013-02-09 02:02:00,30.0,18.0,-100.00,NW,322,10.0,17.0,61,0.00,,,0.00,0.000000,,2013-02-09 09:02:00,
2013-02-09 02:11:00,30.0,18.0,-100.00,NW,322,10.0,17.0,61,0.00,,,0.00,0.000000,,2013-02-09 09:11:00,
2013-02-09 02:21:00,30.0,18.0,-100.00,NW,322,10.0,17.0,61,0.00,,,0.00,0.000000,,2013-02-09 09:21:00,
2013-02-09 02:31:00,30.0,18.0,-100.00,NW,322,10.0,17.0,61,0.00,,,0.00,0.000000,,2013-02-09 09:31:00,
2013-02-09 02:41:00,30.0,18.0,-100.00,NW,322,10.0,17.0,61,0.00,,,0.00,0.000000,,2013-02-09 09:41:00,
2013-02-09 03:01:00,30.0,17.0,-100.00,NNW,332,11.0,19.0,59,0.00,,,0.00,0.000000,,2013-02-09 10:01:00,
2013-02-09 03:11:00,30.0,17.0,-100.00,NNW,332,11.0,19.0,59,0.00,,,0.00,0.000000,,2013-02-09 10:11:00,
2013-02-09 03:21:00,30.0,17.0,-100.00,NNW,332,11.0,19.0,59,0.00,,,0.00,0.000000,,2013-02-09 10:21:00,
2013-02-09 03:31:00,30.0,17.0,-100.00,NNW,332,11.0,19.0,59,0.00,,,0.00,0.000000,,2013-02-09 10:31:00,
2013-02-09 03:41:00,30.0,17.0,-100.00,NNW,332,11.0,19.0,59,0.00,,,0.00,0.000000,,2013-02-09 10:41:00,
2013-02-09 04:01:00,30.0,15.0,-100.00,NW,317,11.0,22.0,53,0.00,,,0.00,0.000000,,2013-02-09 11:01:00,
2013-02-09 04:11:00,30.0,15.0,-100.00,NW,317,11.0,22.0,53,0.00,,,0.00,0.000000,,2013-02-09 11:11:00,
2013-02-09 04:21:00,30.0,15.0,-100.00,NW,317,11.0,22.0,53,0.00,,,0.00,0.000000,,2013-02-09 11:21:00,
2013-02-09 04:31:00,30.0,15.0,-100.00,NW,317,11.0,22.0,53,0.00,,,0.00,0.000000,,2013-02-09 11:31:00,
2013-02-09 04:41:00,30.0,15.0,-100.00,NW,317,11.0,22.0,53,0.00,,,0.00,0.000000,,2013-02-09 11:41:00,
2013-02-09 05:02:00,29.0,16.0,-100.00,NW,319,9.0,21.0,57,0.00,,,0.00,0.000000,,2013-02-09 12:02:00,
2013-02-09 05:11:00,29.0,16.0,-100.00,NW,319,9.0,21.0,57,0.00,,,0.00,0.000000,,2013-02-09 12:11:00,
2013-02-09 05:21:00,29.0,16.0,-100.00,NW,319,9.0,21.0,57,0.00,,,0.00,0.000000,,2013-02-09 12:21:00,
2013-02-09 05:32:00,29.0,16.0,-100.00,NW,319,9.0,21.0,57,0.00,,,0.00,0.000000,,2013-02-09 12:32:00,
2013-02-09 05:41:00,29.0,16.0,-100.00,NW,319,9.0,21.0,57,0.00,,,0.00,0.000000,,2013-02-09 12:41:00,
2013-02-09 06:02:00,29.0,16.0,-100.00,NW,320,10.0,18.0,57,0.00,,,0.00,0.000000,,2013-02-09 13:02:00,
2013-02-09 06:11:00,29.0,16.0,-100.00,NW,320,10.0,18.0,57,0.00,,,0.00,0.000000,,2013-02-09 13:11:00,
2013-02-09 06:21:00,29.0,16.0,-100.00,NW,320,10.0,18.0,57,0.00,,,0.00,0.000000,,2013-02-09 13:21:00,
2013-02-09 06:31:00,29.0,16.0,-100.00,NW,320,10.0,18.0,57,0.00,,,0.00,0.000000,,2013-02-09 13:31:00,
2013-02-09 06:41:00,29.0,16.0,-100.00,NW,320,10.0,18.0,57,0.00,,,0.00,0.000000,,2013-02-09 13:41:00,
2013-02-09 07:01:00,28.0,14.0,-100.00,NW,326,9.0,20.0,56,0.00,,,0.00,0.000000,,2013-02-09 14:01:00,
2013-02-09 07:11:00,28.0,14.0,-100.00,NW,326,9.0,20.0,56,0.00,,,0.00,0.000000,,2013-02-09 14:11:00,
2013-02-09 07:21:00,28.0,14.0,-100.00,NW,326,9.0,20.0,56,0.00,,,0.00,0.000000,,2013-02-09 14:21:00,
2013-02-09 07:31:00,28.0,14.0,-100.00,NW,326,9.0,20.0,56,0.00,,,0.00,0.000000,,2013-02-09 14:31:00,
2013-02-09 07:41:00,28.0,14.0,-100.00,NW,326,9.0,20.0,56,0.00,,,0.00,0.000000,,2013-02-09 14:41:00,
2013-02-09 08:01:00,28.0,15.0,-100.00,NW,325,9.0,19.0,57,0.00,,,0.00,0.000000,,2013-02-09 15:01:00,
2013-02-09 08:11:00,28.0,15.0,-100.00,NW,325,9.0,19.0,57,0.00,,,0.00,0.000000,,2013-02-09 15:11:00,
2013-02-09 08:21:00,28.0,15.0,-100.00,NW,325,9.0,19.0,57,0.00,,,0.00,0.000000,,2013-02-09 15:21:00,
2013-02-09 08:31:00,28.0,15.0,-100.00,NW,325,9.0,19.0,57,0.00,,,0.00,0.000000,,2013-02-09 15:31:00,
2013-02-09 08:41:00,28.0,15.0,-100.00,NW,325,9.0,19.0,57,0.00,,,0.00,0.000000,,2013-02-09 15:41:00,
2013-02-09 09:01:00,30.0,17.0,-100.00,NNW,330,11.0,27.0,59,0.00,,,0.00,20.000000,,2013-02-09 16:01:00,
2013-02-09 09:11:00,30.0,17.0,-100.00,NNW,330,11.0,27.0,59,0.00,,,0.00,20.000000,,2013-02-09 16:11:00,
2013-02-09 09:21:00,30.0,17.0,-100.00,NNW,330,11.0,27.0,59,0.00,,,0.00,20.000000,,2013-02-09 16:21:00,
2013-02-09 09:31:00,30.0,17.0,-100.00,NNW,330,11.0,27.0,59,0.00,,,0.00,20.000000,,2013-02-09 16:31:00,
2013-02-09 09:41:00,30.0,17.0,-100.00,NNW,330,11.0,27.0,59,0.00,,,0.00,20.000000,,2013-02-09 16:41:00,
2013-02-09 10:01:00,33.0,16.0,-100.00,NNW,327,7.0,18.0,50,0.00,,,0.00,173.000000,,2013-02-09 17:01:00,
2013-02-09 10:11:00,33.0,16.0,-100.00,NNW,327,7.0,18.0,50,0.00,,,0.00,173.000000,,2013-02-09 17:11:00,
2013-02-09 10:21:00,33.0,16.0,-100.00,NNW,327,7.0,18.0,50,0.00,,,0.00,173.000000,,2013-02-09 17:21:00,
2013-02-09 10:32:00,33.0,16.0,-100.00,NNW,327,7.0,18.0,50,0.00,,,0.00,173.000000,,2013-02-09 17:32:00,
2013-02-09 10:41:00,33.0,16.0,-100.00,NNW,327,7.0,18.0,50,0.00,,,0.00,173.000000,,2013-02-09 17:41:00,
2013-02-09 11:01:00,37.0,18.0,-100.00,NNW,340,6.0,22.0,46,0.00,,,0.00,338.000000,,2013-02-09 18:01:00,
2013-02-09 11:12:00,37.0,18.0,-100.00,NNW,340,6.0,22.0,46,0.00,,,0.00,338.000000,,2013-02-09 18:12:00,
2013-02-09 11:23:00,37.0,18.0,-100.00,NNW,340,6.0,22.0,46,0.00,,,0.00,338.000000,,2013-02-09 18:23:00,
2013-02-09 11:31:00,37.0,18.0,-100.00,NNW,340,6.0,22.0,46,0.00,,,0.00,338.000000,,2013-02-09 18:31:00,
2013-02-09 11:41:00,37.0,18.0,-100.00,NNW,340,6.0,22.0,46,0.00,,,0.00,338.000000,,2013-02-09 18:41:00,
2013-02-09 12:01:00,36.0,18.0,-100.00,NW,317,12.0,28.0,47,0.00,,,0.00,441.000000,,2013-02-09 19:01:00,
2013-02-09 12:11:00,36.0,18.0,-100.00,NW,317,12.0,28.0,47,0.00,,,0.00,441.000000,,2013-02-09 19:11:00,
2013-02-09 12:22:00,36.0,18.0,-100.00,NW,317,12.0,28.0,47,0.00,,,0.00,441.000000,,2013-02-09 19:22:00,
2013-02-09 12:31:00,36.0,18.0,-100.00,NW,317,12.0,28.0,47,0.00,,,0.00,441.000000,,2013-02-09 19:31:00,
2013-02-09 12:41:00,36.0,18.0,-100.00,NW,317,12.0,28.0,47,0.00,,,0.00,441.000000,,2013-02-09 19:41:00,
2013-02-09 13:01:00,39.0,18.0,-100.00,NW,320,8.0,27.0,43,0.00,,,0.00,552.000000,,2013-02-09 20:01:00,
2013-02-09 13:11:00,39.0,18.0,-100.00,NW,320,8.0,27.0,43,0.00,,,0.00,552.000000,,2013-02-09 20:11:00,
2013-02-09 13:21:00,39.0,18.0,-100.00,NW,320,8.0,27.0,43,0.00,,,0.00,552.000000,,2013-02-09 20:21:00,
2013-02-09 13:31:00,39.0,18.0,-100.00,NW,320,8.0,27.0,43,0.00,,,0.00,552.000000,,2013-02-09 20:31:00,
2013-02-09 13:41:00,39.0,18.0,-100.00,NW,320,8.0,27.0,43,0.00,,,0.00,552.000000,,2013-02-09 20:41:00,
2013-02-09 14:01:00,37.0,19.0,-100.00,NW,323,10.0,19.0,47,0.00,,,0.00,422.000000,,2013-02-09 21:01:00,
2013-02-09 14:11:00,37.0,19.0,-100.00,NW,323,10.0,19.0,47,0.00,,,0.00,422.000000,,2013-02-09 21:11:00,
2013-02-09 14:21:00,37.0,19.0,-100.00,NW,323,10.0,19.0,47,0.00,,,0.00,422.000000,,2013-02-09 21:21:00,
2013-02-09 14:31:00,37.0,19.0,-100.00,NW,323,10.0,19.0,47,0.00,,,0.00,422.000000,,2013-02-09 21:31:00,
2013-02-09 14:41:00,37.0,19.0,-100.00,NW,323,10.0,19.0,47,0.00,,,0.00,422.000000,,2013-02-09 21:41:00,
2013-02-09 15:01:00,37.0,19.0,-100.00,NW,318,7.0,20.0,48,0.00,,,0.00,268.000000,,2013-02-09 22:01:00,
2013-02-09 15:11:00,37.0,19.0,-100.00,NW,318,7.0,20.0,48,0.00,,,0.00,268.000000,,2013-02-09 22:11:00,
2013-02-09 15:21:00,37.0,19.0,-100.00,NW,318,7.0,20.0,48,0.00,,,0.00,268.000000,,2013-02-09 22:21:00,
2013-02-09 15:31:00,37.0,19.0,-100.00,NW,318,7.0,20.0,48,0.00,,,0.00,268.000000,,2013-02-09 22:31:00,
2013-02-09 15:41:00,37.0,19.0,-100.00,NW,318,7.0,20.0,48,0.00,,,0.00,268.000000,,2013-02-09 22:41:00,
2013-02-09 16:01:00,37.0,21.0,-100.00,NNW,327,8.0,16.0,52,0.00,,,0.00,254.000000,,2013-02-09 23:01:00,
2013-02-09 16:11:00,37.0,21.0,-100.00,NNW,327,8.0,16.0,52,0.00,,,0.00,254.000000,,2013-02-09 23:11:00,
2013-02-09 16:21:00,37.0,21.0,-100.00,NNW,327,8.0,16.0,52,0.00,,,0.00,254.000000,,2013-02-09 23:21:00,
2013-02-09 16:31:00,37.0,21.0,-100.00,NNW,327,8.0,16.0,52,0.00,,,0.00,254.000000,,2013-02-09 23:31:00,
2013-02-09 16:41:00,37.0,21.0,-100.00,NNW,327,8.0,16.0,52,0.00,,,0.00,254.000000,,2013-02-09 23:41:00,
2013-02-09 17:02:00,35.0,21.0,-100.00,NW,321,10.0,18.0,56,0.00,,,0.00,178.000000,,2013-02-10 00:02:00,
2013-02-09 17:11:00,35.0,21.0,-100.00,NW,321,10.0,18.0,56,0.00,,,0.00,178.000000,,2013-02-10 00:11:00,
2013-02-09 17:21:00,35.0,21.0,-100.00,NW,321,10.0,18.0,56,0.00,,,0.00,178.000000,,2013-02-10 00:21:00,
2013-02-09 17:31:00,35.0,21.0,-100.00,NW,321,10.0,18.0,56,0.00,,,0.00,178.000000,,2013-02-10 00:31:00,
2013-02-09 17:41:00,35.0,21.0,-100.00,NW,321,10.0,18.0,56,0.00,,,0.00,178.000000,,2013-02-10 00:41:00,
2013-02-09 18:01:00,34.0,21.0,-100.00,WNW,301,3.0,17.0,59,0.00,,,0.00,86.000000,,2013-02-10 01:01:00,
2013-02-09 18:11:00,34.0,21.0,-100.00,WNW,301,3.0,17.0,59,0.00,,,0.00,86.000000,,2013-02-10 01:11:00,
2013-02-09 18:21:00,34.0,21.0,-100.00,WNW,301,3.0,17.0,59,0.00,,,0.00,86.000000,,2013-02-10 01:21:00,
2013-02-09 18:31:00,34.0,21.0,-100.00,WNW,301,3.0,17.0,59,0.00,,,0.00,86.000000,,2013-02-10 01:31:00,
2013-02-09 18:41:00,34.0,21.0,-100.00,WNW,301,3.0,17.0,59,0.00,,,0.00,86.000000,,2013-02-10 01:41:00,
2013-02-09 19:01:00,32.0,22.0,-100.00,ENE,70,4.0,10.0,65,0.00,,,0.00,3.000000,,2013-02-10 02:01:00,
2013-02-09 19:11:00,32.0,22.0,-100.00,ENE,70,4.0,10.0,65,0.00,,,0.00,3.000000,,2013-02-10 02:11:00,
2013-02-09 19:22:00,32.0,22.0,-100.00,ENE,70,4.0,10.0,65,0.00,,,0.00,3.000000,,2013-02-10 02:22:00,
2013-02-09 19:31:00,32.0,22.0,-100.00,ENE,70,4.0,10.0,65,0.00,,,0.00,3.000000,,2013-02-10 02:31:00,
2013-02-09 19:41:00,32.0,22.0,-100.00,ENE,70,4.0,10.0,65,0.00,,,0.00,3.000000,,2013-02-10 02:41:00,
2013-02-09 20:01:00,30.0,25.0,-100.00,ENE,67,4.0,10.0,82,0.00,,,0.00,0.000000,,2013-02-10 03:01:00,
2013-02-09 20:11:00,30.0,25.0,-100.00,ENE,67,4.0,10.0,82,0.00,,,0.00,0.000000,,2013-02-10 03:11:00,
2013-02-09 20:21:00,30.0,25.0,-100.00,ENE,67,4.0,10.0,82,0.00,,,0.00,0.000000,,2013-02-10 03:21:00,
2013-02-09 20:32:00,30.0,25.0,-100.00,ENE,67,4.0,10.0,82,0.00,,,0.00,0.000000,,2013-02-10 03:32:00,
2013-02-09 20:41:00,30.0,25.0,-100.00,ENE,67,4.0,10.0,82,0.00,,,0.00,0.000000,,2013-02-10 03:41:00,
2013-02-09 21:01:00,30.0,25.0,-100.00,West,264,3.0,9.0,80,0.00,,,0.00,0.000000,,2013-02-10 04:01:00,
2013-02-09 21:11:00,30.0,25.0,-100.00,West,264,3.0,9.0,80,0.00,,,0.00,0.000000,,2013-02-10 04:11:00,
2013-02-09 21:21:00,30.0,25.0,-100.00,West,264,3.0,9.0,80,0.00,,,0.00,0.000000,,2013-02-10 04:21:00,
2013-02-09 21:32:00,30.0,25.0,-100.00,West,264,3.0,9.0,80,0.00,,,0.00,0.000000,,2013-02-10 04:32:00,
2013-02-09 21:41:00,30.0,25.0,-100.00,West,264,3.0,9.0,80,0.00,,,0.00,0.000000,,2013-02-10 04:41:00,
2013-02-09 22:01:00,30.0,25.0,-100.00,NNE,16,3.0,13.0,81,0.00,,,0.00,0.000000,,2013-02-10 05:01:00,
2013-02-09 22:11:00,30.0,25.0,-100.00,NNE,16,3.0,13.0,81,0.00,,,0.00,0.000000,,2013-02-10 05:11:00,
2013-02-09 22:22:00,30.0,25.0,-100.00,NNE,16,3.0,13.0,81,0.00,,,0.00,0.000000,,2013-02-10 05:22:00,
2013-02-09 22:31:00,30.0,25.0,-100.00,NNE,16,3.0,13.0,81,0.00,,,0.00,0.000000,,2013-02-10 05:31:00,
2013-02-09 22:41:00,30.0,25.0,-100.00,NNE,16,3.0,13.0,81,0.00,,,0.00,0.000000,,2013-02-10 05:41:00,
2013-02-09 22:42:00,31.0,22.0,-100.00,NW,318,14.0,23.0,70,0.00,,,0.00,0.000000,,2013-02-10 05:42:00,
2013-02-09 23:01:00,31.0,22.0,-100.00,NW,318,14.0,23.0,70,0.00,,,0.00,0.000000,,2013-02-10 06:01:00,
2013-02-09 23:11:00,31.0,22.0,-100.00,NW,318,14.0,23.0,70,0.00,,,0.00,0.000000,,2013-02-10 06:11:00,
2013-02-09 23:21:00,31.0,22.0,-100.00,NW,318,14.0,23.0,70,0.00,,,0.00,0.000000,,2013-02-10 06:21:00,
2013-02-09 23:32:00,31.0,22.0,-100.00,NW,318,14.0,23.0,70,0.00,,,0.00,0.000000,,2013-02-10 06:32:00,